Location: Barcelona
(41.3830°N, 2.1830°E)
Time: 23:24:53
(UTC+02:00)

ISS - Pass Details

Date: 25 May 2019
Orbit: 408 x 418 km, 51.6° (Epoch: 26 May)

Event Time Altitude Azimuth Distance (km) Brightness Sun altitude
Rises 23:23:58 0° 303° (WNW) 2,353 1.3 -19.2°
Reaches altitude 10° 23:26:47 10° 329° (NNW) 1,492 0.3 -19.5°
Maximum altitude 23:28:44 15° 5° (N) 1,248 -0.7 -19.7°
Drops below altitude 10° 23:30:42 10° 41° (NE) 1,494 -0.8 -19.9°
Enters shadow 23:32:21 - 58° (ENE) 1,962 -0.4 -20.1°
